星链-31261 (STARLINK-31261 )

导读

STARLINK-31261(星链-31261)是美国太空探索技术公司(SpaceX)星链卫星互联网项目中的低轨卫星,于2024年2月29日发射入轨,为星链计划第6批次部署卫星,采用Starlink v2.0 mini平台,运行于近地轨道,目前在轨正常工作,旨在为全球提供高速宽带互联网服务,助力完善全球无缝覆盖的通信网络。

Basic Information
目录编号:
59084
目录名称:
STARLINK-31261
国际标识:
2024-041L
轨道中心:
EARTH
卫星名称:
星链-31261
卫星全名:
星链-31261 (STARLINK-31261 )
卫星状态:
在轨 (已飞行925 天)
发射日期:
2024-02-29 UTC
国别 :
美国 (US)
星等 :
--
This satellite is enrolled in the Space Conjunction Data Service (SCDS) and the current flight risk assessment level is: High Risk
Orbit Information
数据来源 国际轨道数据
星历时间: 2026-09-11T22:37:33+0800
5小时前
查看轨道信息
半长轴: 6861.175km
偏心率: 0.000137
轨道倾角: 43.004°
近地点辐角 270.879°
升交点赤经 340.888°
平近点角 89.190°
近地点: 482.098km
远地点: 483.978km
周期: 94.267分钟
每日圈数: 15.275838
Detailed Information
固有亮度:
5
最大亮度:
0.3
卫星平台:
Starlink v2.0 mini
覆盖范围:
全球
运营商:
太空探索技术公司
运营商所在国:
美国
制造商(研发单位):
太空探索技术公司
制造商所在国:
美国
使用方式:
暂无
Satellite Introduction
星链(Starlink)计划是由太空探索技术公司(SpaceX)提出的一个巨型低轨卫星互联网星座项目,计划在2019年至2024年间在太空搭建由约1.2万颗卫星组成的“星链”网络,其中1584颗将部署在地球上空550千米处的近地轨道,并从2020年开始工作。该卫星仍在工作。
2D Orbit Map
3D Orbit Map
Orbit Altitude Analysis Chart
Orbit Inclination Analysis Chart
Orbit Comprehensive Analysis Chart
View Comprehensive Chart
Conjunction Data List
Event ID Objects TCA Miss Dist (km) Collision Risk Probability Collision Risk Index (CRI) Action
CDM_260914-002805-908406-799721
2026-09-14T
00:28:17+0000
0.849 km
远距离
3.012998E-5 中风险 0.65
CDM_260913-075405-908406-365921
2026-09-13T
07:54:54+0000
0.922 km
远距离
1.679652E-5 中风险 0.6
CDM_260913-005105-908406-365921
2026-09-13T
00:51:13+0000
1.061 km
极远距离
1.037842E-5 中风险 0.55
CDM_260914-020205-908406-799721
2026-09-14T
02:02:26+0000
1.603 km
极远距离
3.546323E-6 低风险 0.46
CDM_260913-062005-908406-365921
2026-09-13T
06:20:45+0000
1.574 km
极远距离
2.811032E-6 低风险 0.44
CDM_260913-022505-908406-365921
2026-09-13T
02:25:22+0000
2.177 km
极远距离
1.215089E-6 低风险 0.37
CDM_260914-002605-908406-332321
2026-09-14T
00:26:04+0000
2.488 km
极远距离
1.111568E-6 低风险 0.36
CDM_260912-231705-908406-365921
2026-09-12T
23:17:04+0000
2.421 km
极远距离
9.910884E-7 极低风险 0.35
CDM_260914-042105-908406-332321
2026-09-14T
04:21:27+0000
2.712 km
极远距离
9.729597E-7 极低风险 0.35
CDM_260913-225405-908406-799721
2026-09-13T
22:54:07+0000
2.924 km
极远距离
9.634832E-7 极低风险 0.35
Miss Distance Evolution Trend with All Objects
Collision Probability Evolution Trend with All Objects